This is the latest recevied weather packets stored in our database for station/object F5OWB. If no packets are shown the sender has not sent any weather packets the latest 10 day(s).
| Time | Temp. | Humidity | Pressure | Rain* | Wind** | Luminosity | Snow |
|---|---|---|---|---|---|---|---|
| 1778252284 | 20° C | 46% | 1016.9 hPa | 0 mm | - | 91 W/m² | - |
| 1778252224 | 20° C | 45% | 1016.9 hPa | 0 mm | - | 304 W/m² | - |
| 1778252167 | 20° C | 48% | 1016.8 hPa | 0 mm | - | 304 W/m² | - |
| 1778252102 | 20° C | 50% | 1016.9 hPa | 0 mm | - | 399 W/m² | - |
| 1778252039 | 20° C | 48% | 1016.9 hPa | 0 mm | - | 439 W/m² | - |
| 1778251976 | 20° C | 48% | 1016.9 hPa | 0 mm | - | 526 W/m² | - |
| 1778251916 | 20° C | 49% | 1016.9 hPa | 0 mm | - | 510 W/m² | - |
| 1778251856 | 20° C | - | - | - | - | - | - |
| 1778251854 | 20° C | 47% | 1016.9 hPa | 0 mm | - | 517 W/m² | - |
| 1778251790 | 20° C | 48% | 1016.9 hPa | 0 mm | - | 452 W/m² | - |
| 1778251729 | 20° C | 46% | 1016.9 hPa | 0 mm | - | 464 W/m² | - |
| 1778251668 | 20° C | 46% | 1016.9 hPa | 0 mm | - | 478 W/m² | - |
| 1778251547 | 20° C | 46% | 1017 hPa | 0 mm | - | 517 W/m² | - |
| 1778251486 | 20° C | 46% | 1017 hPa | 0 mm | - | 534 W/m² | - |
| 1778251423 | 20° C | 49% | 1016.9 hPa | 0 mm | - | 563 W/m² | - |
| 1778251359 | 20° C | 49% | 1017 hPa | 0 mm | - | 587 W/m² | - |
| 1778251298 | 20° C | 49% | 1016.9 hPa | 0 mm | - | 601 W/m² | - |
| 1778251240 | 20° C | 50% | 1017 hPa | 0 mm | - | 601 W/m² | - |
| 1778251177 | 20° C | 48% | 1017 hPa | 0 mm | - | 601 W/m² | - |
| 1778251117 | 20° C | 50% | 1017 hPa | 0 mm | - | 598 W/m² | - |
| 1778251058 | 20° C | 47% | 1017 hPa | 0 mm | - | 601 W/m² | - |
| 1778250994 | 20° C | 48% | 1017 hPa | 0 mm | - | 585 W/m² | - |
| 1778250993 | 20° C | 48% | 1017 hPa | 0 mm | - | 585 W/m² | - |
| 1778250934 | 20° C | 51% | 1017 hPa | 0 mm | - | 591 W/m² | - |
| 1778250871 | 20° C | 48% | 1017 hPa | 0 mm | - | 605 W/m² | - |
* Rain latest hour (hover to see other rain measurements)
** Current wind speed in m/s (hover to see current wind gust speed)